Location: Waco, TX
(31.5480°N, 97.1670°W)
Time: 22:43:31
(UTC-06:00)

ISS - Pass Details

Date: 08 January 2018
Orbit: 402 x 407 km, 51.6° (Epoch: 20 January)

Event Time Altitude Azimuth Distance (km) Brightness Sun altitude
Rises 10:35:57 0° 294° (WNW) 2,324 -0.4 29.1°
Reaches altitude 10° 10:38:44 10° 268° (W) 1,461 -1.2 29.4°
Maximum altitude 10:40:33 14° 234° (SW) 1,235 -1.2 29.6°
Drops below altitude 10° 10:42:22 10° 200° (SSW) 1,456 -0.4 29.8°
Sets 10:45:09 0° 174° (S) 2,311 1.0 30.1°
